Tracking 29747 objects as of 10-Oct-2024
HD Live streaming from Space Station
objects crossing your sky now

STARLINK-32321

Track STARLINK-32321 now!
10-day predictions
STARLINK-32321 is classified as:


NORAD ID: 61065
Int'l Code: 2024-164R
Perigee: 453.3 km
Apogee: 455.9 km
Inclination: 53.2 °
Period: 93.5 minutes
Semi major axis: 6825 km
RCS: Unknown
Launch date: September 13, 2024
Source: United States (US)
Launch site: AIR FORCE WESTERN TEST RANGE (AFWTR)
Your satellite tracking list
Your tracking list is empty




NASA's NSSDC Master Catalog

Two Line Element Set (TLE):
1 61065U 24164R   24283.91667824  .00133456  00000-0  32982-2 0  9995
2 61065  53.1603 336.1535 0001914  60.2500 141.6333 15.39528112  5410
Source of the keplerian elements: AFSPC